Weather in Tukita

Russia / Republic of Dagestan     43°29′29″N   46°37′07″E
temp.,
°C
wind,
m/s
gust,
m/s
humid.,
%
clouds,
%
prec.,
mm/h
press.,
hPa
HPBL,
m
14 may, fri
fri1400:00+12ese33887 0.0 101433
03:00+11ese22912 0.0 101423
06:00+14ese12825 0.0 101485
09:00+22ese23615 0.0 1013416
12:00+29ese58390 0.0 1012963
15:00+28e1016420 0.0 1010666
18:00+22ese1020510 0.0 1010406
21:00+20ese715540 0.0 1011289
15 may, sat
sat1500:00+18ese512570 0.0 1011216
03:00+16ese48620 0.0 1011137
06:00+17se23690 0.0 101297
09:00+25e12480 0.0 1013471
12:00+30ese34340 0.0 10121123
15:00+28e811300 0.0 1011578
18:00+21e614450 0.0 1011295
21:00+18ese51143100 0.0 1012197
16 may, sun
sun1600:00+17ese4104849 0.0 1011164
03:00+16ese495181 0.0 1011164
06:00+16ese37660 0.0 1010174
09:00+25ese610435 0.0 1009730
12:00+30ese1013281 0.0 10071087
15:00+28ese1217350 0.0 1006864
18:00+22e1122450 0.0 1005549
21:00+21ese1021400 0.0 1005448
17 may, mon
mon1700:00+19ese714495 0.0 1005285
03:00+16ese49625 0.0 1005185
06:00+17ese496861 0.0 1006207
09:00+25ese8123985 0.0 1005655
12:00+28ese101231100 0.0 1005765
15:00+26ese10144117 0.0 1004557
18:00+21e8165416 0.0 1003333
21:00+15ese34651 0.0 100669
18 may, tue
tue1800:00+14wnw127388 0.0 100721
03:00+16w41071100 0.0 1007199
06:00+19w5107899 0.0 1009441
09:00+24w8105599 0.3 10101024
12:00+25wnw7853100 0.2 10101183
15:00+26w9953100 0.2 10101548
18:00+21sw61083100 0.2 1012472
21:00+19wsw5108197 0.3 1013297